TimeMDT,TemperatureF,Dew PointF,Humidity,Sea Level PressureIn,VisibilityMPH,Wind Direction,Wind SpeedMPH,Gust SpeedMPH,PrecipitationIn,Events,Conditions,WindDirDegrees,DateUTC
12:23 AM,41.0,35.6,81,29.85,10.0,WSW,8.1,-,N/A,,Overcast,250,2013-10-11 06:23:00
12:53 AM,41.0,35.1,79,29.77,10.0,WSW,4.6,-,N/A,,Overcast,240,2013-10-11 06:53:00
1:53 AM,41.0,35.1,79,29.79,10.0,West,4.6,-,N/A,,Overcast,280,2013-10-11 07:53:00
2:14 AM,41.0,33.8,76,29.88,10.0,West,8.1,-,N/A,,Overcast,260,2013-10-11 08:14:00
2:53 AM,41.0,35.1,79,29.80,10.0,SW,6.9,-,0.00,Rain,Light Rain,230,2013-10-11 08:53:00
3:53 AM,39.9,35.1,83,29.81,10.0,WSW,9.2,-,0.02,Rain,Light Rain,240,2013-10-11 09:53:00
4:53 AM,39.0,36.0,89,29.84,10.0,West,6.9,-,0.01,Rain,Light Rain,280,2013-10-11 10:53:00
5:53 AM,39.0,35.1,86,29.87,9.0,West,11.5,-,0.03,Rain,Light Rain,260,2013-10-11 11:53:00
6:53 AM,37.9,35.1,89,29.91,9.0,West,9.2,-,0.03,Rain,Light Rain,270,2013-10-11 12:53:00
7:22 AM,37.4,35.6,93,29.99,5.0,West,4.6,-,0.02,Rain,Light Rain,270,2013-10-11 13:22:00
7:53 AM,37.9,35.1,89,29.94,10.0,West,6.9,-,0.03,Rain,Light Rain,260,2013-10-11 13:53:00
8:53 AM,39.0,36.0,89,29.96,10.0,Calm,Calm,-,0.00,,Overcast,0,2013-10-11 14:53:00
9:27 AM,39.2,35.6,87,30.03,10.0,Calm,Calm,-,N/A,,Overcast,0,2013-10-11 15:27:00
9:53 AM,39.9,37.0,89,29.99,3.0,SE,3.5,-,N/A,,Overcast,130,2013-10-11 15:53:00
10:31 AM,39.2,35.6,87,30.05,10.0,ESE,4.6,-,0.00,,Overcast,120,2013-10-11 16:31:00
10:38 AM,39.2,37.4,93,30.05,10.0,ESE,3.5,-,0.00,,Overcast,120,2013-10-11 16:38:00
10:53 AM,41.0,36.0,82,29.98,10.0,Calm,Calm,-,0.00,,Overcast,0,2013-10-11 16:53:00
11:53 AM,44.1,36.0,73,29.96,10.0,Calm,Calm,-,N/A,,Mostly Cloudy,0,2013-10-11 17:53:00
12:53 PM,45.0,36.0,71,29.95,10.0,SSE,3.5,-,N/A,,Overcast,150,2013-10-11 18:53:00
1:53 PM,45.0,37.0,74,29.94,10.0,SE,4.6,-,N/A,,Overcast,140,2013-10-11 19:53:00
2:53 PM,48.0,34.0,58,29.92,10.0,Calm,Calm,-,0.00,,Mostly Cloudy,0,2013-10-11 20:53:00
3:53 PM,48.0,39.0,71,29.94,10.0,SE,8.1,-,N/A,,Partly Cloudy,130,2013-10-11 21:53:00
4:53 PM,46.0,37.9,73,29.96,10.0,ESE,6.9,-,N/A,,Overcast,120,2013-10-11 22:53:00
5:53 PM,45.0,37.9,76,29.98,10.0,East,5.8,-,0.01,Rain,Light Rain,100,2013-10-11 23:53:00
6:53 PM,42.1,37.0,82,30.03,10.0,Calm,Calm,-,0.00,,Overcast,0,2013-10-12 00:53:00
7:53 PM,39.9,37.0,89,30.05,5.0,East,10.4,-,0.03,Rain,Light Rain,80,2013-10-12 01:53:00
8:53 PM,39.0,37.0,93,30.07,10.0,NE,4.6,-,0.00,,Partly Cloudy,50,2013-10-12 02:53:00
9:53 PM,37.0,36.0,96,30.08,10.0,Calm,Calm,-,N/A,,Scattered Clouds,0,2013-10-12 03:53:00
10:53 PM,37.0,35.1,93,30.09,10.0,NE,4.6,-,N/A,,Clear,40,2013-10-12 04:53:00
11:53 PM,35.1,33.1,92,30.09,10.0,NE,3.5,-,N/A,,Partly Cloudy,50,2013-10-12 05:53:00